Thompson, Manitoba

10:23 AM CDT on May 23, 2017 (GMT -0500)
Thompson

Weather History for CYTH - January, 2013

Change the Weather History Date:

Thursday, January 24, 2013

  Actual Average Record
Temperature  
Mean Temperature -28 °F -  
Max Temperature -15 °F 6 °F 21 °F (2006)
Min Temperature -40 °F -13 °F -41 °F (2002)
Degree Days  
Heating Degree Days 92    
Moisture  
Dew Point -36 °F    
Average Humidity 64    
Maximum Humidity 74    
Minimum Humidity 46    
Precipitation  
Precipitation 0.00 in 0.02 in - ()
Sea Level Pressure  
Sea Level Pressure 30.51 in    
Wind  
Wind Speed 1 mph ()    
Max Wind Speed 5 mph    
Max Gust Speed -    
Visibility 14.3 miles    
Events Snow    
Averages and records for this station are not official NWS values.
T = Trace of Precipitation, MM = Missing Value Source: Averaged Metar Reports

Daily Weather History Graph

Daily Weather History Graph

Search for Another Location

Airport or City:

Trip Planner

Search our weather history database for the weather conditions in past years. The results will help you decide how hot, cold, wet, or windy it might be!

Date:

Astronomy

Jan. 24, 2013 Rise Set
Actual Time 8:38 AM CST 4:49 PM CST
Civil Twilight 7:56 AM CST 5:31 PM CST
Nautical Twilight 7:10 AM CST 6:17 PM CST
Astronomical Twilight 6:26 AM CST 7:01 PM CST
Moon 2:46 PM CST (1/24) 6:44 AM CST (1/24)
Length of Visible Light 9h 35m
Length of Day
8h 10m
Waxing Gibbous, 94% of the Moon is Illuminated
Jan 24
Waxing Gibbous
Jan 26
Full
Feb 3
Last Quarter
Feb 10
New
Feb 17
First Quarter

Hourly Weather History & Observations

Time (CST) Temp. Windchill Dew Point Humidity Pressure Visibility Wind Dir Wind Speed Gust Speed Precip Events Conditions
12:00 AM -33 °F - -40 °F 49% 30.68 in 15 mi Calm Calm - -  
12:00 AM -32.8 °F - -40.0 °F 68% 30.68 in 15.0 mi Calm Calm - N/A   Clear
1:00 AM -31.0 °F - -38.2 °F 68% 30.67 in 15.0 mi Calm Calm - N/A   Clear
2:00 AM -34.6 °F - -41.8 °F 68% 30.66 in 15.0 mi Calm Calm - N/A   Clear
3:00 AM -36.4 °F - -43.6 °F 67% 30.65 in 15.0 mi Calm Calm - N/A   Clear
4:00 AM -34.6 °F - -41.8 °F 68% 30.65 in 15.0 mi Calm Calm - N/A   Clear
5:00 AM -36.4 °F -49.4 °F -43.6 °F 67% 30.63 in 15.0 mi West 3.5 mph - N/A   Clear
6:00 AM -40 °F - -45 °F 59% 30.62 in 15 mi West 3.5 mph - -  
6:00 AM -40.0 °F -56.6 °F -45.4 °F 74% 30.62 in 15.0 mi West 4.6 mph - N/A   Clear
7:00 AM -40.0 °F - -47.2 °F 67% 30.62 in 15.0 mi Calm Calm - N/A   Clear
7:11 AM - - - N/A% - 15.0 mi Calm Calm - N/A   Clear
8:00 AM -38.2 °F - -43.6 °F 74% 30.60 in 15.0 mi Calm Calm - N/A   Scattered Clouds
9:00 AM -38.2 °F - -43.6 °F 74% 30.58 in 10.0 mi Calm Calm - N/A   Mostly Cloudy
10:00 AM -34.6 °F - -41.8 °F 68% 30.56 in 10.0 mi Calm Calm - N/A   Mostly Cloudy
11:00 AM -29.2 °F - -36.4 °F 68% 30.54 in 12.0 mi Calm Calm - N/A   Mostly Cloudy
12:00 PM -25 °F - -32 °F 51% 30.52 in 12 mi Calm Calm - - Snow Snow
12:00 PM -25.6 °F - -32.8 °F 69% 30.52 in 12.0 mi Calm Calm - N/A   Mostly Cloudy
1:00 PM -18.4 °F -28.9 °F -27.4 °F 63% 30.48 in 15.0 mi SE 3.5 mph - N/A   Mostly Cloudy
2:00 PM -16.6 °F -26.8 °F -27.4 °F 58% 30.45 in 15.0 mi SSE 3.5 mph - N/A   Mostly Cloudy
3:00 PM -16.6 °F -29.3 °F -27.4 °F 58% 30.41 in 15.0 mi ESE 4.6 mph - N/A   Mostly Cloudy
4:00 PM -14.8 °F -24.8 °F -25.6 °F 58% 30.39 in 15.0 mi ESE 3.5 mph - N/A   Mostly Cloudy
5:00 PM -16.6 °F -26.8 °F -25.6 °F 64% 30.38 in 15.0 mi East 3.5 mph - N/A   Mostly Cloudy
6:00 PM -18 °F - -27 °F 46% 30.36 in 15 mi East 4.6 mph - - Snow Snow
6:00 PM -18.4 °F -31.4 °F -27.4 °F 63% 30.36 in 15.0 mi East 4.6 mph - N/A   Mostly Cloudy
7:00 PM -18.4 °F -28.9 °F -27.4 °F 63% 30.35 in 15.0 mi East 3.5 mph - N/A   Mostly Cloudy
8:00 PM -16.6 °F -29.3 °F -27.4 °F 58% 30.34 in 15.0 mi East 4.6 mph - N/A   Mostly Cloudy
9:00 PM -22.0 °F - -31.0 °F 63% 30.34 in 15.0 mi Calm Calm - N/A   Mostly Cloudy
10:00 PM -25.6 °F -39.8 °F -32.8 °F 69% 30.33 in 15.0 mi NE 4.6 mph - N/A   Partly Cloudy
11:00 PM -27.4 °F - -34.6 °F 69% 30.33 in 15.0 mi Calm Calm - N/A   Partly Cloudy